Time,TemperatureF,DewpointF,PressureIn,WindDirection,WindDirectionDegrees,WindSpeedMPH,WindSpeedGustMPH,Humidity,HourlyPrecipIn,Conditions,Clouds,dailyrainin,SoftwareType,DateUTC
2013-02-17 00:00:00,27.7,16.0,30.22,NNW,329,0.0,0.0,61,0.00,,SKC,0.00,VWS V13.00,2013-02-17 06:00:00,
2013-02-17 00:05:00,27.7,16.0,30.22,NNW,329,0.0,0.0,61,0.00,,SKC,0.00,VWS V13.00,2013-02-17 06:05:00,
2013-02-17 00:10:00,27.8,15.7,30.22,NNW,329,1.0,2.0,60,0.00,,SKC,0.00,VWS V13.00,2013-02-17 06:10:00,
2013-02-17 00:15:00,27.8,16.1,30.22,NNW,329,0.0,2.0,61,0.00,,SKC,0.00,VWS V13.00,2013-02-17 06:15:00,
2013-02-17 00:20:00,27.8,16.9,30.22,NNW,329,1.0,2.0,63,0.00,,SKC,0.00,VWS V13.00,2013-02-17 06:20:00,
2013-02-17 00:25:00,27.7,16.8,30.22,NNW,329,2.0,2.0,63,0.00,,SKC,0.00,VWS V13.00,2013-02-17 06:25:00,
2013-02-17 00:30:00,27.6,16.3,30.22,WNW,300,2.0,4.0,62,0.00,,SKC,0.00,VWS V13.00,2013-02-17 06:30:00,
2013-02-17 00:35:00,27.7,16.0,30.23,WNW,292,5.0,5.0,61,0.00,,SKC,0.00,VWS V13.00,2013-02-17 06:35:00,
2013-02-17 00:40:00,27.8,16.1,30.23,WNW,294,3.0,6.0,61,0.00,,SKC,0.00,VWS V13.00,2013-02-17 06:40:00,
2013-02-17 00:45:00,27.8,15.7,30.23,WNW,291,2.0,6.0,60,0.00,,SKC,0.00,VWS V13.00,2013-02-17 06:45:00,
2013-02-17 00:50:00,27.7,15.6,30.23,WNW,291,1.0,6.0,60,0.00,,SKC,0.00,VWS V13.00,2013-02-17 06:50:00,
2013-02-17 00:55:00,27.7,15.3,30.23,WNW,291,2.0,6.0,59,0.00,,SKC,0.00,VWS V13.00,2013-02-17 06:55:00,
2013-02-17 01:00:00,27.8,15.7,30.23,West,280,1.0,6.0,60,0.00,,SKC,0.00,VWS V13.00,2013-02-17 07:00:00,
2013-02-17 01:05:00,27.6,15.9,30.24,WNW,296,2.0,6.0,61,0.00,,SKC,0.00,VWS V13.00,2013-02-17 07:05:00,
2013-02-17 01:10:00,27.4,16.1,30.24,NW,309,2.0,6.0,62,0.00,,SKC,0.00,VWS V13.00,2013-02-17 07:10:00,
2013-02-17 01:15:00,27.4,16.1,30.24,WNW,286,4.0,6.0,62,0.00,,SKC,0.00,VWS V13.00,2013-02-17 07:15:00,
2013-02-17 01:20:00,27.3,16.0,30.24,WNW,302,4.0,7.0,62,0.00,,SKC,0.00,VWS V13.00,2013-02-17 07:20:00,
2013-02-17 01:25:00,27.6,16.3,30.23,NW,319,4.0,9.0,62,0.00,,SKC,0.00,VWS V13.00,2013-02-17 07:25:00,
2013-02-17 01:30:00,27.5,15.8,30.24,WNW,299,4.0,9.0,61,0.00,,SKC,0.00,VWS V13.00,2013-02-17 07:30:00,
2013-02-17 01:35:00,27.5,16.2,30.24,NW,305,4.0,5.0,62,0.00,,SKC,0.00,VWS V13.00,2013-02-17 07:35:00,
2013-02-17 01:40:00,27.6,16.3,30.23,NW,304,5.0,7.0,62,0.00,,SKC,0.00,VWS V13.00,2013-02-17 07:40:00,
2013-02-17 01:45:00,27.5,15.8,30.23,NW,322,6.0,7.0,61,0.00,,SKC,0.00,VWS V13.00,2013-02-17 07:45:00,
2013-02-17 01:50:00,27.6,15.6,30.23,NW,323,5.0,8.0,60,0.00,,SKC,0.00,VWS V13.00,2013-02-17 07:50:00,
2013-02-17 01:55:00,27.6,15.2,30.23,NW,325,6.0,10.0,59,0.00,,SKC,0.00,VWS V13.00,2013-02-17 07:55:00,
2013-02-17 02:00:00,27.7,16.0,30.23,NW,308,6.0,10.0,61,0.00,,SKC,0.00,VWS V13.00,2013-02-17 08:00:00,
2013-02-17 02:05:00,27.5,15.8,30.23,WNW,299,6.0,7.0,61,0.00,,SKC,0.00,VWS V13.00,2013-02-17 08:05:00,
2013-02-17 02:10:00,27.4,15.7,30.23,NNW,327,6.0,7.0,61,0.00,,SKC,0.00,VWS V13.00,2013-02-17 08:10:00,
2013-02-17 02:15:00,27.3,16.0,30.23,NW,319,3.0,7.0,62,0.00,,SKC,0.00,VWS V13.00,2013-02-17 08:15:00,
2013-02-17 02:20:00,27.2,15.6,30.23,NW,318,4.0,8.0,61,0.00,,SKC,0.00,VWS V13.00,2013-02-17 08:20:00,
2013-02-17 02:25:00,27.2,15.2,30.23,NW,318,2.0,8.0,60,0.00,,SKC,0.00,VWS V13.00,2013-02-17 08:25:00,
2013-02-17 02:30:00,27.3,15.3,30.23,NW,318,4.0,8.0,60,0.00,,SKC,0.00,VWS V13.00,2013-02-17 08:30:00,
2013-02-17 02:35:00,27.5,15.1,30.23,NNW,328,2.0,6.0,59,0.00,,SKC,0.00,VWS V13.00,2013-02-17 08:35:00,
2013-02-17 02:40:00,27.4,15.4,30.23,NW,321,2.0,6.0,60,0.00,,SKC,0.00,VWS V13.00,2013-02-17 08:40:00,
2013-02-17 02:44:00,27.3,15.3,30.23,NW,315,3.0,6.0,60,0.00,,SKC,0.00,VWS V13.00,2013-02-17 08:44:00,
2013-02-17 02:49:00,27.1,15.4,30.23,NW,310,2.0,6.0,61,0.00,,SKC,0.00,VWS V13.00,2013-02-17 08:49:00,
2013-02-17 02:54:00,26.9,15.3,30.23,NW,323,1.0,6.0,61,0.00,,SKC,0.00,VWS V13.00,2013-02-17 08:54:00,
2013-02-17 02:59:00,26.9,15.3,30.22,NW,321,3.0,6.0,61,0.00,,SKC,0.00,VWS V13.00,2013-02-17 08:59:00,
2013-02-17 03:04:00,26.7,15.1,30.23,NW,311,2.0,4.0,61,0.00,,SKC,0.00,VWS V13.00,2013-02-17 09:04:00,
2013-02-17 03:09:00,26.7,15.4,30.23,NNW,331,5.0,8.0,62,0.00,,SKC,0.00,VWS V13.00,2013-02-17 09:09:00,
2013-02-17 03:14:00,26.9,15.3,30.22,NW,316,3.0,8.0,61,0.00,,SKC,0.00,VWS V13.00,2013-02-17 09:14:00,
2013-02-17 03:19:00,26.8,15.2,30.22,NNW,341,8.0,8.0,61,0.00,,SKC,0.00,VWS V13.00,2013-02-17 09:19:00,
2013-02-17 03:24:00,26.9,14.9,30.22,NNW,347,3.0,8.0,60,0.00,,SKC,0.00,VWS V13.00,2013-02-17 09:24:00,
2013-02-17 03:29:00,26.8,15.2,30.22,North,5,4.0,8.0,61,0.00,,SKC,0.00,VWS V13.00,2013-02-17 09:29:00,
2013-02-17 03:34:00,26.4,15.2,30.23,North,360,1.0,3.0,62,0.00,,SKC,0.00,VWS V13.00,2013-02-17 09:34:00,
2013-02-17 03:39:00,26.1,14.9,30.23,North,360,0.0,5.0,62,0.00,,SKC,0.00,VWS V13.00,2013-02-17 09:39:00,
2013-02-17 03:44:00,26.0,14.8,30.23,NNW,331,1.0,5.0,62,0.00,,SKC,0.00,VWS V13.00,2013-02-17 09:44:00,
2013-02-17 03:49:00,26.0,15.1,30.23,NNW,331,1.0,5.0,63,0.00,,SKC,0.00,VWS V13.00,2013-02-17 09:49:00,
2013-02-17 03:54:00,26.1,14.9,30.23,NW,315,1.0,5.0,62,0.00,,SKC,0.00,VWS V13.00,2013-02-17 09:54:00,
2013-02-17 03:59:00,26.2,15.3,30.23,NW,322,2.0,5.0,63,0.00,,SKC,0.00,VWS V13.00,2013-02-17 09:59:00,
2013-02-17 04:04:00,26.1,14.9,30.23,North,349,1.0,4.0,62,0.00,,SKC,0.00,VWS V13.00,2013-02-17 10:04:00,
2013-02-17 04:09:00,26.1,15.2,30.23,NNW,340,1.0,4.0,63,0.00,,SKC,0.00,VWS V13.00,2013-02-17 10:09:00,
2013-02-17 04:14:00,26.0,15.5,30.23,NNW,340,0.0,4.0,64,0.00,,SKC,0.00,VWS V13.00,2013-02-17 10:14:00,
2013-02-17 04:19:00,25.5,16.1,30.24,NNW,340,0.0,4.0,67,0.00,,SKC,0.00,VWS V13.00,2013-02-17 10:19:00,
2013-02-17 04:24:00,25.1,16.7,30.24,NNW,340,0.0,4.0,70,0.00,,SKC,0.00,VWS V13.00,2013-02-17 10:24:00,
2013-02-17 04:29:00,24.8,15.4,30.25,NNW,340,0.0,4.0,67,0.00,,SKC,0.00,VWS V13.00,2013-02-17 10:29:00,
2013-02-17 04:34:00,24.6,16.2,30.25,NNW,340,0.0,0.0,70,0.00,,SKC,0.00,VWS V13.00,2013-02-17 10:34:00,
2013-02-17 04:39:00,24.4,16.0,30.25,NNW,340,0.0,0.0,70,0.00,,SKC,0.00,VWS V13.00,2013-02-17 10:39:00,
2013-02-17 04:44:00,24.4,16.0,30.25,NNW,340,0.0,0.0,70,0.00,,SKC,0.00,VWS V13.00,2013-02-17 10:44:00,
2013-02-17 04:49:00,24.4,16.0,30.25,NNW,340,0.0,0.0,70,0.00,,SKC,0.00,VWS V13.00,2013-02-17 10:49:00,
2013-02-17 04:54:00,24.5,15.8,30.25,NNW,340,0.0,0.0,69,0.00,,SKC,0.00,VWS V13.00,2013-02-17 10:54:00,
2013-02-17 04:59:00,24.7,16.0,30.26,NW,323,1.0,2.0,69,0.00,,SKC,0.00,VWS V13.00,2013-02-17 10:59:00,
2013-02-17 05:04:00,24.6,15.9,30.26,WNW,301,2.0,2.0,69,0.00,,SKC,0.00,VWS V13.00,2013-02-17 11:04:00,
2013-02-17 05:09:00,24.1,16.7,30.26,WSW,242,4.0,4.0,73,0.00,,SKC,0.00,VWS V13.00,2013-02-17 11:09:00,
2013-02-17 05:14:00,23.3,17.2,30.26,WSW,242,3.0,4.0,77,0.00,,SKC,0.00,VWS V13.00,2013-02-17 11:14:00,
2013-02-17 05:19:00,23.1,16.7,30.26,WSW,242,2.0,4.0,76,0.00,,SKC,0.00,VWS V13.00,2013-02-17 11:19:00,
2013-02-17 05:24:00,23.1,16.7,30.27,WSW,242,1.0,4.0,76,0.00,,SKC,0.00,VWS V13.00,2013-02-17 11:24:00,
2013-02-17 05:29:00,23.2,16.5,30.27,WSW,242,2.0,4.0,75,0.00,,SKC,0.00,VWS V13.00,2013-02-17 11:29:00,
2013-02-17 05:34:00,23.1,16.7,30.27,WSW,242,1.0,2.0,76,0.00,,SKC,0.00,VWS V13.00,2013-02-17 11:34:00,
2013-02-17 05:39:00,23.0,16.3,30.27,WSW,242,2.0,2.0,75,0.00,,SKC,0.00,VWS V13.00,2013-02-17 11:39:00,
2013-02-17 05:44:00,22.9,16.8,30.27,WSW,242,0.0,2.0,77,0.00,,SKC,0.00,VWS V13.00,2013-02-17 11:44:00,
2013-02-17 05:49:00,23.0,16.9,30.27,WSW,242,0.0,2.0,77,0.00,,SKC,0.00,VWS V13.00,2013-02-17 11:49:00,
2013-02-17 05:54:00,22.9,17.1,30.27,WSW,242,0.0,2.0,78,0.00,,SKC,0.00,VWS V13.00,2013-02-17 11:54:00,
2013-02-17 05:59:00,22.7,17.2,30.27,WSW,242,0.0,2.0,79,0.00,,SKC,0.00,VWS V13.00,2013-02-17 11:59:00,
2013-02-17 06:04:00,22.5,16.7,30.28,SW,214,4.0,4.0,78,0.00,,SKC,0.00,VWS V13.00,2013-02-17 12:04:00,
2013-02-17 06:09:00,22.5,16.7,30.28,SW,221,2.0,5.0,78,0.00,,SKC,0.00,VWS V13.00,2013-02-17 12:09:00,
2013-02-17 06:14:00,22.2,16.7,30.29,SW,222,2.0,5.0,79,0.00,,SKC,0.00,VWS V13.00,2013-02-17 12:14:00,
2013-02-17 06:19:00,22.2,16.7,30.29,SW,222,1.0,5.0,79,0.00,,SKC,0.00,VWS V13.00,2013-02-17 12:19:00,
2013-02-17 06:24:00,22.4,16.9,30.29,SW,223,2.0,5.0,79,0.00,,SKC,0.00,VWS V13.00,2013-02-17 12:24:00,
2013-02-17 06:29:00,22.4,16.6,30.30,SW,220,4.0,6.0,78,0.00,,SKC,0.00,VWS V13.00,2013-02-17 12:29:00,
2013-02-17 06:34:00,22.4,16.6,30.30,SW,231,2.0,6.0,78,0.00,,SKC,0.00,VWS V13.00,2013-02-17 12:34:00,
2013-02-17 06:39:00,22.5,17.0,30.30,SW,214,4.0,6.0,79,0.00,,SKC,0.00,VWS V13.00,2013-02-17 12:39:00,
2013-02-17 06:44:00,22.5,17.0,30.30,SW,234,5.0,8.0,79,0.00,,SKC,0.00,VWS V13.00,2013-02-17 12:44:00,
2013-02-17 06:49:00,22.7,17.2,30.31,WSW,239,5.0,8.0,79,0.00,,SKC,0.00,VWS V13.00,2013-02-17 12:49:00,
2013-02-17 06:54:00,22.8,17.3,30.31,WSW,249,4.0,8.0,79,0.00,,SKC,0.00,VWS V13.00,2013-02-17 12:54:00,
2013-02-17 06:59:00,23.1,17.6,30.31,WSW,243,3.0,8.0,79,0.00,,SKC,0.00,VWS V13.00,2013-02-17 12:59:00,
2013-02-17 07:04:00,23.5,18.0,30.31,WSW,240,1.0,4.0,79,0.00,,SKC,0.00,VWS V13.00,2013-02-17 13:04:00,
2013-02-17 07:09:00,24.1,18.2,30.31,WSW,248,4.0,5.0,78,0.00,,SKC,0.00,VWS V13.00,2013-02-17 13:09:00,
2013-02-17 07:14:00,24.8,18.6,30.30,SW,232,0.0,5.0,77,0.00,,SKC,0.00,VWS V13.00,2013-02-17 13:14:00,
2013-02-17 07:19:00,25.4,18.9,30.30,SW,236,0.0,5.0,76,0.00,,SKC,0.00,VWS V13.00,2013-02-17 13:19:00,
2013-02-17 07:24:00,25.9,19.1,30.30,WSW,238,1.0,5.0,75,0.00,,SKC,0.00,VWS V13.00,2013-02-17 13:24:00,
2013-02-17 07:29:00,26.5,19.7,30.30,WSW,239,1.0,5.0,75,0.00,,SKC,0.00,VWS V13.00,2013-02-17 13:29:00,
2013-02-17 07:34:00,27.0,19.5,30.30,SW,236,2.0,5.0,73,0.00,,SKC,0.00,VWS V13.00,2013-02-17 13:34:00,
2013-02-17 07:39:00,27.3,19.5,30.30,WSW,248,2.0,5.0,72,0.00,,SKC,0.00,VWS V13.00,2013-02-17 13:39:00,
2013-02-17 07:44:00,27.6,19.4,30.30,WSW,246,2.0,5.0,71,0.00,,SKC,0.00,VWS V13.00,2013-02-17 13:44:00,
2013-02-17 07:49:00,27.9,19.4,30.30,WSW,245,4.0,5.0,70,0.00,,SKC,0.00,VWS V13.00,2013-02-17 13:49:00,
2013-02-17 07:54:00,28.3,19.8,30.30,West,264,1.0,5.0,70,0.00,,SKC,0.00,VWS V13.00,2013-02-17 13:54:00,
2013-02-17 07:59:00,28.7,19.8,30.30,WSW,248,4.0,6.0,69,0.00,,SKC,0.00,VWS V13.00,2013-02-17 13:59:00,
2013-02-17 08:04:00,29.0,20.1,30.31,West,259,4.0,5.0,69,0.00,,SKC,0.00,VWS V13.00,2013-02-17 14:04:00,
2013-02-17 08:09:00,29.5,20.3,30.31,WSW,254,2.0,6.0,68,0.00,,SKC,0.00,VWS V13.00,2013-02-17 14:09:00,
2013-02-17 08:14:00,29.9,20.3,30.31,West,259,2.0,6.0,67,0.00,,SKC,0.00,VWS V13.00,2013-02-17 14:14:00,
2013-02-17 08:19:00,30.3,20.0,30.32,West,259,2.0,6.0,65,0.00,,SKC,0.00,VWS V13.00,2013-02-17 14:19:00,
2013-02-17 08:24:00,30.7,21.1,30.31,WSW,241,2.0,6.0,67,0.00,,SKC,0.00,VWS V13.00,2013-02-17 14:24:00,
2013-02-17 08:29:00,31.3,20.5,30.32,West,262,3.0,6.0,64,0.00,,SKC,0.00,VWS V13.00,2013-02-17 14:29:00,
2013-02-17 08:34:00,31.7,20.6,30.32,WNW,288,1.0,5.0,63,0.00,,SKC,0.00,VWS V13.00,2013-02-17 14:34:00,
2013-02-17 08:39:00,32.3,22.2,30.32,West,272,5.0,5.0,66,0.00,,SKC,0.00,VWS V13.00,2013-02-17 14:39:00,
2013-02-17 08:44:00,32.9,18.5,30.32,NW,306,5.0,6.0,55,0.00,,SKC,0.00,VWS V13.00,2013-02-17 14:44:00,
2013-02-17 08:49:00,33.3,19.7,30.32,NNW,333,2.0,6.0,57,0.00,,SKC,0.00,VWS V13.00,2013-02-17 14:49:00,
2013-02-17 08:54:00,33.8,18.9,30.32,NNW,330,0.0,6.0,54,0.00,,SKC,0.00,VWS V13.00,2013-02-17 14:54:00,
2013-02-17 08:59:00,34.8,18.5,30.31,NW,323,4.0,6.0,51,0.00,,SKC,0.00,VWS V13.00,2013-02-17 14:59:00,
2013-02-17 09:04:00,34.7,17.0,30.32,WNW,287,7.0,7.0,48,0.00,,SKC,0.00,VWS V13.00,2013-02-17 15:04:00,
2013-02-17 09:09:00,34.6,17.4,30.32,WNW,291,2.0,7.0,49,0.00,,SKC,0.00,VWS V13.00,2013-02-17 15:09:00,
2013-02-17 09:14:00,34.9,17.2,30.32,West,277,4.0,9.0,48,0.00,,SKC,0.00,VWS V13.00,2013-02-17 15:14:00,
2013-02-17 09:19:00,35.0,17.8,30.33,NW,311,6.0,10.0,49,0.00,,SKC,0.00,VWS V13.00,2013-02-17 15:19:00,
2013-02-17 09:24:00,35.6,18.3,30.32,NW,320,7.0,10.0,49,0.00,,SKC,0.00,VWS V13.00,2013-02-17 15:24:00,
2013-02-17 09:29:00,36.0,17.2,30.32,West,268,7.0,10.0,46,0.00,,SKC,0.00,VWS V13.00,2013-02-17 15:29:00,
2013-02-17 09:34:00,36.1,17.8,30.32,WNW,286,4.0,8.0,47,0.00,,SKC,0.00,VWS V13.00,2013-02-17 15:34:00,
2013-02-17 09:39:00,36.4,18.1,30.32,West,279,1.0,9.0,47,0.00,,SKC,0.00,VWS V13.00,2013-02-17 15:39:00,
2013-02-17 09:44:00,36.8,16.4,30.32,NW,321,5.0,9.0,43,0.00,,SKC,0.00,VWS V13.00,2013-02-17 15:44:00,
2013-02-17 09:49:00,36.9,15.4,30.32,NW,310,11.0,11.0,41,0.00,,SKC,0.00,VWS V13.00,2013-02-17 15:49:00,
2013-02-17 09:54:00,37.1,14.4,30.33,North,360,6.0,12.0,39,0.00,,SKC,0.00,VWS V13.00,2013-02-17 15:54:00,
2013-02-17 09:59:00,37.3,14.0,30.32,NW,315,6.0,12.0,38,0.00,,SKC,0.00,VWS V13.00,2013-02-17 15:59:00,
2013-02-17 10:04:00,37.5,16.0,30.33,WNW,292,7.0,8.0,41,0.00,,SKC,0.00,VWS V13.00,2013-02-17 16:04:00,
2013-02-17 10:09:00,38.2,14.8,30.33,West,268,6.0,10.0,38,0.00,,SKC,0.00,VWS V13.00,2013-02-17 16:09:00,
2013-02-17 10:14:00,37.8,13.9,30.33,West,267,6.0,11.0,37,0.00,,SKC,0.00,VWS V13.00,2013-02-17 16:14:00,
2013-02-17 10:19:00,38.0,15.8,30.33,WNW,292,5.0,11.0,40,0.00,,SKC,0.00,VWS V13.00,2013-02-17 16:19:00,
2013-02-17 10:24:00,38.3,15.5,30.33,SW,219,1.0,11.0,39,0.00,,SKC,0.00,VWS V13.00,2013-02-17 16:24:00,
2013-02-17 10:29:00,39.0,16.2,30.33,North,360,2.0,11.0,39,0.00,,SKC,0.00,VWS V13.00,2013-02-17 16:29:00,
2013-02-17 10:34:00,40.0,17.1,30.32,WSW,239,6.0,10.0,39,0.00,,SKC,0.00,VWS V13.00,2013-02-17 16:34:00,
2013-02-17 10:39:00,39.9,13.8,30.33,NW,325,3.0,12.0,34,0.00,,SKC,0.00,VWS V13.00,2013-02-17 16:39:00,
2013-02-17 10:43:00,39.6,14.2,30.33,NNW,340,5.0,12.0,35,0.00,,SKC,0.00,VWS V13.00,2013-02-17 16:43:00,
2013-02-17 10:48:00,39.6,14.9,30.32,NW,308,4.0,12.0,36,0.00,,SKC,0.00,VWS V13.00,2013-02-17 16:48:00,
2013-02-17 10:54:00,39.7,14.9,30.32,North,355,8.0,12.0,36,0.00,,SKC,0.00,VWS V13.00,2013-02-17 16:54:00,
2013-02-17 10:59:00,40.1,14.7,30.32,NNW,348,4.0,12.0,35,0.00,,SKC,0.00,VWS V13.00,2013-02-17 16:59:00,
2013-02-17 11:04:00,40.2,14.8,30.32,WNW,286,8.0,12.0,35,0.00,,SKC,0.00,VWS V13.00,2013-02-17 17:04:00,
2013-02-17 11:09:00,40.1,14.0,30.32,WNW,300,8.0,12.0,34,0.00,,SKC,0.00,VWS V13.00,2013-02-17 17:09:00,
2013-02-17 11:14:00,40.3,14.2,30.31,NNE,22,9.0,12.0,34,0.00,,SKC,0.00,VWS V13.00,2013-02-17 17:14:00,
2013-02-17 11:19:00,40.7,15.8,30.31,NW,304,8.0,12.0,36,0.00,,SKC,0.00,VWS V13.00,2013-02-17 17:19:00,
2013-02-17 11:24:00,40.7,13.1,30.31,NW,306,5.0,12.0,32,0.00,,SKC,0.00,VWS V13.00,2013-02-17 17:24:00,
2013-02-17 11:29:00,40.6,14.4,30.31,North,355,6.0,12.0,34,0.00,,SKC,0.00,VWS V13.00,2013-02-17 17:29:00,
2013-02-17 11:34:00,41.0,14.1,30.31,North,360,6.0,8.0,33,0.00,,SKC,0.00,VWS V13.00,2013-02-17 17:34:00,
2013-02-17 11:39:00,41.2,15.6,30.30,West,264,5.0,8.0,35,0.00,,SKC,0.00,VWS V13.00,2013-02-17 17:39:00,
2013-02-17 11:44:00,41.4,15.1,30.30,WSW,238,3.0,9.0,34,0.00,,SKC,0.00,VWS V13.00,2013-02-17 17:44:00,
2013-02-17 11:49:00,41.5,14.6,30.30,North,5,4.0,9.0,33,0.00,,SKC,0.00,VWS V13.00,2013-02-17 17:49:00,
2013-02-17 11:54:00,41.7,14.7,30.30,NNW,335,7.0,13.0,33,0.00,,SKC,0.00,VWS V13.00,2013-02-17 17:54:00,
2013-02-17 11:59:00,41.7,16.1,30.29,North,5,5.0,13.0,35,0.00,,SKC,0.00,VWS V13.00,2013-02-17 17:59:00,
2013-02-17 12:04:00,41.6,16.6,30.29,WSW,253,7.0,7.0,36,0.00,,SKC,0.00,VWS V13.00,2013-02-17 18:04:00,
2013-02-17 12:09:00,42.0,16.4,30.29,NW,308,5.0,9.0,35,0.00,,SKC,0.00,VWS V13.00,2013-02-17 18:09:00,
2013-02-17 12:14:00,42.5,16.1,30.29,NW,304,10.0,12.0,34,0.00,,SKC,0.00,VWS V13.00,2013-02-17 18:14:00,
2013-02-17 12:19:00,42.4,17.4,30.28,NNW,330,1.0,12.0,36,0.00,,SKC,0.00,VWS V13.00,2013-02-17 18:19:00,
2013-02-17 12:24:00,42.8,17.1,30.28,West,269,0.0,12.0,35,0.00,,SKC,0.00,VWS V13.00,2013-02-17 18:24:00,
2013-02-17 12:29:00,43.1,19.2,30.27,NNE,18,3.0,12.0,38,0.00,,SKC,0.00,VWS V13.00,2013-02-17 18:29:00,
2013-02-17 12:34:00,43.4,16.2,30.27,NE,51,5.0,9.0,33,0.00,,SKC,0.00,VWS V13.00,2013-02-17 18:34:00,
2013-02-17 12:39:00,43.3,16.8,30.27,WNW,290,8.0,11.0,34,0.00,,SKC,0.00,VWS V13.00,2013-02-17 18:39:00,
2013-02-17 12:44:00,43.3,16.8,30.27,NW,305,7.0,13.0,34,0.00,,SKC,0.00,VWS V13.00,2013-02-17 18:44:00,
2013-02-17 12:48:00,43.3,17.5,30.27,NNW,343,10.0,13.0,35,0.00,,SKC,0.00,VWS V13.00,2013-02-17 18:48:00,
2013-02-17 12:53:00,43.8,16.6,30.26,WNW,283,10.0,16.0,33,0.00,,SKC,0.00,VWS V13.00,2013-02-17 18:53:00,
2013-02-17 12:58:00,44.1,17.5,30.26,NNE,22,8.0,16.0,34,0.00,,SKC,0.00,VWS V13.00,2013-02-17 18:58:00,
2013-02-17 13:03:00,44.0,16.8,30.26,NNW,338,7.0,11.0,33,0.00,,SKC,0.00,VWS V13.00,2013-02-17 19:03:00,
2013-02-17 13:08:00,44.4,19.1,30.26,NNW,336,7.0,11.0,36,0.00,,SKC,0.00,VWS V13.00,2013-02-17 19:08:00,
2013-02-17 13:13:00,44.7,18.1,30.25,North,355,10.0,11.0,34,0.00,,SKC,0.00,VWS V13.00,2013-02-17 19:13:00,
2013-02-17 13:18:00,44.7,16.7,30.25,North,11,7.0,12.0,32,0.00,,SKC,0.00,VWS V13.00,2013-02-17 19:18:00,
2013-02-17 13:23:00,44.6,17.3,30.25,NNW,336,7.0,12.0,33,0.00,,SKC,0.00,VWS V13.00,2013-02-17 19:23:00,
2013-02-17 13:28:00,44.8,18.2,30.25,NNE,27,7.0,12.0,34,0.00,,SKC,0.00,VWS V13.00,2013-02-17 19:28:00,
2013-02-17 13:33:00,44.6,16.6,30.25,NW,304,1.0,8.0,32,0.00,,SKC,0.00,VWS V13.00,2013-02-17 19:33:00,
2013-02-17 13:38:00,45.1,19.1,30.24,WNW,283,2.0,8.0,35,0.00,,SKC,0.00,VWS V13.00,2013-02-17 19:38:00,
2013-02-17 13:43:00,45.8,17.6,30.24,North,349,5.0,11.0,32,0.00,,SKC,0.00,VWS V13.00,2013-02-17 19:43:00,
2013-02-17 13:48:00,45.6,17.5,30.24,NNW,348,8.0,12.0,32,0.00,,SKC,0.00,VWS V13.00,2013-02-17 19:48:00,
2013-02-17 13:53:00,45.4,18.7,30.24,NNW,346,10.0,12.0,34,0.00,,SKC,0.00,VWS V13.00,2013-02-17 19:53:00,
2013-02-17 13:58:00,45.9,19.8,30.24,SW,223,2.0,12.0,35,0.00,,SKC,0.00,VWS V13.00,2013-02-17 19:58:00,
2013-02-17 14:03:00,46.3,17.3,30.24,South,186,0.0,6.0,31,0.00,,SKC,0.00,VWS V13.00,2013-02-17 20:03:00,
2013-02-17 14:08:00,45.9,20.5,30.24,West,272,7.0,7.0,36,0.00,,SKC,0.00,VWS V13.00,2013-02-17 20:08:00,
2013-02-17 14:13:00,45.2,18.5,30.24,SW,227,4.0,7.0,34,0.00,,SKC,0.00,VWS V13.00,2013-02-17 20:13:00,
2013-02-17 14:18:00,45.5,20.1,30.24,WSW,251,5.0,7.0,36,0.00,,SKC,0.00,VWS V13.00,2013-02-17 20:18:00,
2013-02-17 14:23:00,46.8,18.5,30.23,West,267,9.0,10.0,32,0.00,,SKC,0.00,VWS V13.00,2013-02-17 20:23:00,
2013-02-17 14:28:00,46.4,17.4,30.23,WNW,293,9.0,11.0,31,0.00,,SKC,0.00,VWS V13.00,2013-02-17 20:28:00,
2013-02-17 14:33:00,46.2,17.2,30.23,NNW,344,6.0,8.0,31,0.00,,SKC,0.00,VWS V13.00,2013-02-17 20:33:00,
2013-02-17 14:38:00,46.4,18.9,30.23,NW,308,6.0,9.0,33,0.00,,SKC,0.00,VWS V13.00,2013-02-17 20:38:00,
2013-02-17 14:43:00,46.3,18.1,30.23,NNW,331,9.0,10.0,32,0.00,,SKC,0.00,VWS V13.00,2013-02-17 20:43:00,
2013-02-17 14:48:00,46.8,21.3,30.23,NW,310,7.0,10.0,36,0.00,,SKC,0.00,VWS V13.00,2013-02-17 20:48:00,
2013-02-17 14:53:00,47.1,18.8,30.23,NW,311,4.0,10.0,32,0.00,,SKC,0.00,VWS V13.00,2013-02-17 20:53:00,
2013-02-17 14:58:00,47.0,20.1,30.23,WSW,243,5.0,10.0,34,0.00,,SKC,0.00,VWS V13.00,2013-02-17 20:58:00,
2013-02-17 15:03:00,47.2,21.0,30.23,West,269,9.0,9.0,35,0.00,,SKC,0.00,VWS V13.00,2013-02-17 21:03:00,
2013-02-17 15:08:00,47.1,20.2,30.23,WNW,283,7.0,13.0,34,0.00,,SKC,0.00,VWS V13.00,2013-02-17 21:08:00,
2013-02-17 15:13:00,46.9,20.0,30.23,West,273,11.0,13.0,34,0.00,,SKC,0.00,VWS V13.00,2013-02-17 21:13:00,
2013-02-17 15:18:00,46.8,19.2,30.23,West,277,5.0,13.0,33,0.00,,SKC,0.00,VWS V13.00,2013-02-17 21:18:00,
2013-02-17 15:23:00,46.8,20.6,30.23,West,261,1.0,13.0,35,0.00,,SKC,0.00,VWS V13.00,2013-02-17 21:23:00,
2013-02-17 15:28:00,47.0,20.1,30.23,West,275,8.0,13.0,34,0.00,,SKC,0.00,VWS V13.00,2013-02-17 21:28:00,
2013-02-17 15:33:00,46.8,19.9,30.23,West,265,5.0,9.0,34,0.00,,SKC,0.00,VWS V13.00,2013-02-17 21:33:00,
2013-02-17 15:38:00,47.0,19.4,30.23,West,271,4.0,9.0,33,0.00,,SKC,0.00,VWS V13.00,2013-02-17 21:38:00,
2013-02-17 15:43:00,47.0,19.4,30.23,WSW,257,4.0,12.0,33,0.00,,SKC,0.00,VWS V13.00,2013-02-17 21:43:00,
2013-02-17 15:48:00,47.0,19.4,30.23,NW,325,2.0,12.0,33,0.00,,SKC,0.00,VWS V13.00,2013-02-17 21:48:00,
2013-02-17 15:53:00,47.0,18.7,30.23,WNW,286,4.0,12.0,32,0.00,,SKC,0.00,VWS V13.00,2013-02-17 21:53:00,
2013-02-17 15:58:00,46.5,19.0,30.23,WSW,245,7.0,12.0,33,0.00,,SKC,0.00,VWS V13.00,2013-02-17 21:58:00,
2013-02-17 16:03:00,46.0,19.9,30.23,WNW,288,6.0,7.0,35,0.00,,SKC,0.00,VWS V13.00,2013-02-17 22:03:00,
2013-02-17 16:08:00,46.4,20.2,30.23,WNW,290,6.0,7.0,35,0.00,,SKC,0.00,VWS V13.00,2013-02-17 22:08:00,
2013-02-17 16:13:00,46.6,19.0,30.23,WSW,246,4.0,8.0,33,0.00,,SKC,0.00,VWS V13.00,2013-02-17 22:13:00,
2013-02-17 16:18:00,46.3,19.5,30.24,West,261,5.0,10.0,34,0.00,,SKC,0.00,VWS V13.00,2013-02-17 22:18:00,
2013-02-17 16:23:00,46.0,20.6,30.24,WNW,294,1.0,10.0,36,0.00,,SKC,0.00,VWS V13.00,2013-02-17 22:23:00,
2013-02-17 16:28:00,46.2,20.1,30.23,WSW,251,6.0,10.0,35,0.00,,SKC,0.00,VWS V13.00,2013-02-17 22:28:00,
2013-02-17 16:33:00,45.9,19.1,30.23,West,262,2.0,6.0,34,0.00,,SKC,0.00,VWS V13.00,2013-02-17 22:33:00,
2013-02-17 16:38:00,45.5,19.5,30.23,WSW,241,5.0,7.0,35,0.00,,SKC,0.00,VWS V13.00,2013-02-17 22:38:00,
2013-02-17 16:43:00,45.2,19.9,30.23,WSW,248,1.0,7.0,36,0.00,,SKC,0.00,VWS V13.00,2013-02-17 22:43:00,
2013-02-17 16:48:00,45.2,20.5,30.23,SW,226,4.0,7.0,37,0.00,,SKC,0.00,VWS V13.00,2013-02-17 22:48:00,
2013-02-17 16:53:00,45.2,19.2,30.23,WSW,245,2.0,7.0,35,0.00,,SKC,0.00,VWS V13.00,2013-02-17 22:53:00,
2013-02-17 16:58:00,45.1,20.4,30.23,SW,232,2.0,7.0,37,0.00,,SKC,0.00,VWS V13.00,2013-02-17 22:58:00,
2013-02-17 17:03:00,44.9,19.6,30.23,WSW,254,3.0,3.0,36,0.00,,SKC,0.00,VWS V13.00,2013-02-17 23:03:00,
2013-02-17 17:08:00,44.7,19.4,30.23,West,259,2.0,6.0,36,0.00,,SKC,0.00,VWS V13.00,2013-02-17 23:08:00,
2013-02-17 17:13:00,44.4,19.8,30.24,West,264,1.0,6.0,37,0.00,,SKC,0.00,VWS V13.00,2013-02-17 23:13:00,
2013-02-17 17:18:00,44.0,20.0,30.23,West,263,0.0,6.0,38,0.00,,SKC,0.00,VWS V13.00,2013-02-17 23:18:00,
2013-02-17 17:23:00,43.6,20.9,30.23,West,263,0.0,6.0,40,0.00,,SKC,0.00,VWS V13.00,2013-02-17 23:23:00,
2013-02-17 17:28:00,43.0,21.5,30.23,West,263,2.0,6.0,42,0.00,,SKC,0.00,VWS V13.00,2013-02-17 23:28:00,
2013-02-17 17:33:00,42.5,21.6,30.24,West,263,1.0,1.0,43,0.00,,SKC,0.00,VWS V13.00,2013-02-17 23:33:00,
2013-02-17 17:38:00,42.0,20.6,30.24,West,263,0.0,2.0,42,0.00,,SKC,0.00,VWS V13.00,2013-02-17 23:38:00,
2013-02-17 17:43:00,41.7,20.9,30.24,West,263,2.0,2.0,43,0.00,,SKC,0.00,VWS V13.00,2013-02-17 23:43:00,
2013-02-17 17:48:00,41.3,21.0,30.24,West,263,0.0,2.0,44,0.00,,SKC,0.00,VWS V13.00,2013-02-17 23:48:00,
2013-02-17 17:53:00,40.8,21.1,30.24,West,263,0.0,2.0,45,0.00,,SKC,0.00,VWS V13.00,2013-02-17 23:53:00,
2013-02-17 17:58:00,40.4,20.2,30.24,West,263,0.0,2.0,44,0.00,,SKC,0.00,VWS V13.00,2013-02-17 23:58:00,
2013-02-17 18:03:00,40.5,20.3,30.24,SSW,210,1.0,2.0,44,0.00,,SKC,0.00,VWS V13.00,2013-02-18 00:03:00,
2013-02-17 18:08:00,40.3,20.1,30.24,SSW,210,1.0,2.0,44,0.00,,SKC,0.00,VWS V13.00,2013-02-18 00:08:00,
2013-02-17 18:13:00,40.2,20.0,30.25,South,184,2.0,4.0,44,0.00,,SKC,0.00,VWS V13.00,2013-02-18 00:13:00,
2013-02-17 18:18:00,40.3,20.1,30.24,South,184,0.0,4.0,44,0.00,,SKC,0.00,VWS V13.00,2013-02-18 00:18:00,
2013-02-17 18:23:00,40.3,20.7,30.24,South,184,0.0,4.0,45,0.00,,SKC,0.00,VWS V13.00,2013-02-18 00:23:00,
2013-02-17 18:28:00,40.0,20.4,30.24,South,184,2.0,4.0,45,0.00,,SKC,0.00,VWS V13.00,2013-02-18 00:28:00,
2013-02-17 18:33:00,39.7,19.6,30.24,South,184,1.0,2.0,44,0.00,,SKC,0.00,VWS V13.00,2013-02-18 00:33:00,
2013-02-17 18:38:00,39.9,19.8,30.25,South,184,1.0,2.0,44,0.00,,SKC,0.00,VWS V13.00,2013-02-18 00:38:00,
2013-02-17 18:43:00,39.7,20.1,30.25,South,179,2.0,2.0,45,0.00,,SKC,0.00,VWS V13.00,2013-02-18 00:43:00,
2013-02-17 18:48:00,39.6,20.5,30.25,South,179,0.0,2.0,46,0.00,,SKC,0.00,VWS V13.00,2013-02-18 00:48:00,
2013-02-17 18:53:00,39.4,19.8,30.25,South,179,0.0,2.0,45,0.00,,SKC,0.00,VWS V13.00,2013-02-18 00:53:00,
2013-02-17 18:58:00,39.4,19.3,30.25,South,179,0.0,2.0,44,0.00,,SKC,0.00,VWS V13.00,2013-02-18 00:58:00,
2013-02-17 19:03:00,39.6,19.5,30.25,South,179,0.0,0.0,44,0.00,,SKC,0.00,VWS V13.00,2013-02-18 01:03:00,
2013-02-17 19:08:00,39.5,19.9,30.24,South,179,0.0,0.0,45,0.00,,SKC,0.00,VWS V13.00,2013-02-18 01:08:00,
2013-02-17 19:13:00,39.2,19.7,30.25,SSE,161,5.0,5.0,45,0.00,,SKC,0.00,VWS V13.00,2013-02-18 01:13:00,
2013-02-17 19:18:00,39.4,19.8,30.25,SSE,160,4.0,5.0,45,0.00,,SKC,0.00,VWS V13.00,2013-02-18 01:18:00,
2013-02-17 19:23:00,39.4,20.4,30.25,SSE,160,1.0,5.0,46,0.00,,SKC,0.00,VWS V13.00,2013-02-18 01:23:00,
2013-02-17 19:28:00,39.1,20.6,30.25,SSE,160,1.0,5.0,47,0.00,,SKC,0.00,VWS V13.00,2013-02-18 01:28:00,
2013-02-17 19:33:00,38.5,22.0,30.25,SSE,160,2.0,2.0,51,0.00,,SKC,0.00,VWS V13.00,2013-02-18 01:33:00,
2013-02-17 19:38:00,37.8,19.9,30.25,SSE,161,1.0,4.0,48,0.00,,SKC,0.00,VWS V13.00,2013-02-18 01:38:00,
2013-02-17 19:43:00,38.6,20.1,30.25,South,180,3.0,5.0,47,0.00,,SKC,0.00,VWS V13.00,2013-02-18 01:43:00,
2013-02-17 19:48:00,39.1,20.1,30.25,SSE,148,1.0,5.0,46,0.00,,SKC,0.00,VWS V13.00,2013-02-18 01:48:00,
2013-02-17 19:53:00,39.0,20.0,30.25,SSE,161,2.0,5.0,46,0.00,,SKC,0.00,VWS V13.00,2013-02-18 01:53:00,
2013-02-17 19:58:00,39.0,20.0,30.25,SSE,161,2.0,5.0,46,0.00,,SKC,0.00,VWS V13.00,2013-02-18 01:58:00,
2013-02-17 20:03:00,38.9,19.9,30.24,SSE,159,4.0,4.0,46,0.00,,SKC,0.00,VWS V13.00,2013-02-18 02:03:00,
2013-02-17 20:08:00,39.1,20.1,30.24,SSE,162,4.0,5.0,46,0.00,,SKC,0.00,VWS V13.00,2013-02-18 02:08:00,
2013-02-17 20:13:00,39.3,19.8,30.24,South,169,2.0,5.0,45,0.00,,SKC,0.00,VWS V13.00,2013-02-18 02:13:00,
2013-02-17 20:18:00,39.4,19.8,30.24,South,182,2.0,5.0,45,0.00,,SKC,0.00,VWS V13.00,2013-02-18 02:18:00,
2013-02-17 20:23:00,39.5,19.9,30.25,South,177,4.0,5.0,45,0.00,,SKC,0.00,VWS V13.00,2013-02-18 02:23:00,
2013-02-17 20:28:00,39.6,20.0,30.24,SSE,161,3.0,5.0,45,0.00,,SKC,0.00,VWS V13.00,2013-02-18 02:28:00,
2013-02-17 20:33:00,39.5,19.9,30.25,South,178,2.0,4.0,45,0.00,,SKC,0.00,VWS V13.00,2013-02-18 02:33:00,
2013-02-17 20:38:00,39.4,19.8,30.25,SSE,153,2.0,5.0,45,0.00,,SKC,0.00,VWS V13.00,2013-02-18 02:38:00,
2013-02-17 20:43:00,39.2,19.7,30.25,South,169,2.0,5.0,45,0.00,,SKC,0.00,VWS V13.00,2013-02-18 02:43:00,
2013-02-17 20:48:00,39.1,19.6,30.25,South,171,4.0,6.0,45,0.00,,SKC,0.00,VWS V13.00,2013-02-18 02:48:00,
2013-02-17 20:53:00,39.1,19.6,30.25,South,173,3.0,7.0,45,0.00,,SKC,0.00,VWS V13.00,2013-02-18 02:53:00,
2013-02-17 20:58:00,39.2,20.2,30.25,SSE,166,2.0,7.0,46,0.00,,SKC,0.00,VWS V13.00,2013-02-18 02:58:00,
2013-02-17 21:03:00,39.2,20.2,30.25,South,175,2.0,3.0,46,0.00,,SKC,0.00,VWS V13.00,2013-02-18 03:03:00,
2013-02-17 21:08:00,39.0,20.5,30.25,South,184,1.0,5.0,47,0.00,,SKC,0.00,VWS V13.00,2013-02-18 03:08:00,
2013-02-17 21:13:00,38.7,20.2,30.25,SSE,167,2.0,5.0,47,0.00,,SKC,0.00,VWS V13.00,2013-02-18 03:13:00,
2013-02-17 21:18:00,38.5,20.0,30.25,South,181,1.0,5.0,47,0.00,,SKC,0.00,VWS V13.00,2013-02-18 03:18:00,
2013-02-17 21:23:00,38.4,20.4,30.26,South,175,5.0,5.0,48,0.00,,SKC,0.00,VWS V13.00,2013-02-18 03:23:00,
2013-02-17 21:28:00,38.4,20.4,30.26,South,175,3.0,6.0,48,0.00,,SKC,0.00,VWS V13.00,2013-02-18 03:28:00,
2013-02-17 21:33:00,38.6,20.1,30.26,South,175,2.0,5.0,47,0.00,,SKC,0.00,VWS V13.00,2013-02-18 03:33:00,
2013-02-17 21:38:00,38.5,20.5,30.26,South,182,2.0,6.0,48,0.00,,SKC,0.00,VWS V13.00,2013-02-18 03:38:00,
2013-02-17 21:42:00,38.4,20.4,30.26,South,179,2.0,7.0,48,0.00,,SKC,0.00,VWS V13.00,2013-02-18 03:42:00,
2013-02-17 21:47:00,38.1,20.6,30.26,South,182,2.0,7.0,49,0.00,,SKC,0.00,VWS V13.00,2013-02-18 03:47:00,
2013-02-17 21:52:00,37.8,20.8,30.26,SSE,165,4.0,7.0,50,0.00,,SKC,0.00,VWS V13.00,2013-02-18 03:52:00,
2013-02-17 21:57:00,37.5,20.6,30.26,SSE,166,2.0,7.0,50,0.00,,SKC,0.00,VWS V13.00,2013-02-18 03:57:00,
2013-02-17 22:02:00,37.5,20.6,30.25,South,176,4.0,5.0,50,0.00,,SKC,0.00,VWS V13.00,2013-02-18 04:02:00,
2013-02-17 22:07:00,37.5,20.6,30.25,SSE,161,5.0,7.0,50,0.00,,SKC,0.00,VWS V13.00,2013-02-18 04:07:00,
2013-02-17 22:12:00,37.6,20.7,30.25,SSE,148,5.0,7.0,50,0.00,,SKC,0.00,VWS V13.00,2013-02-18 04:12:00,
2013-02-17 22:17:00,37.5,20.6,30.25,SSE,167,2.0,7.0,50,0.00,,SKC,0.00,VWS V13.00,2013-02-18 04:17:00,
2013-02-17 22:22:00,37.5,20.6,30.25,SSE,160,5.0,7.0,50,0.00,,SKC,0.00,VWS V13.00,2013-02-18 04:22:00,
2013-02-17 22:27:00,37.8,21.3,30.25,South,189,6.0,10.0,51,0.00,,SKC,0.00,VWS V13.00,2013-02-18 04:27:00,
2013-02-17 22:32:00,37.8,20.8,30.25,SE,146,5.0,6.0,50,0.00,,SKC,0.00,VWS V13.00,2013-02-18 04:32:00,
2013-02-17 22:37:00,37.9,20.5,30.25,SSE,150,3.0,7.0,49,0.00,,SKC,0.00,VWS V13.00,2013-02-18 04:37:00,
2013-02-17 22:42:00,37.6,20.7,30.25,SSE,157,5.0,7.0,50,0.00,,SKC,0.00,VWS V13.00,2013-02-18 04:42:00,
2013-02-17 22:47:00,37.6,20.7,30.25,SSE,157,3.0,8.0,50,0.00,,SKC,0.00,VWS V13.00,2013-02-18 04:47:00,
2013-02-17 22:52:00,37.7,20.8,30.25,South,185,2.0,8.0,50,0.00,,SKC,0.00,VWS V13.00,2013-02-18 04:52:00,
2013-02-17 22:57:00,38.0,20.5,30.25,South,176,2.0,9.0,49,0.00,,SKC,0.00,VWS V13.00,2013-02-18 04:57:00,
2013-02-17 23:00:00,38.0,20.5,30.25,SSE,161,3.0,9.0,49,0.00,,SKC,0.00,VWS V13.00,2013-02-18 05:00:00,
2013-02-17 23:05:00,38.1,20.6,30.25,SSW,192,6.0,7.0,49,0.00,,SKC,0.00,VWS V13.00,2013-02-18 05:05:00,
2013-02-17 23:10:00,37.8,20.8,30.25,South,178,5.0,7.0,50,0.00,,SKC,0.00,VWS V13.00,2013-02-18 05:10:00,
2013-02-17 23:15:00,37.5,21.0,30.25,SSE,163,2.0,7.0,51,0.00,,SKC,0.00,VWS V13.00,2013-02-18 05:15:00,
2013-02-17 23:20:00,37.3,20.9,30.25,SSE,163,4.0,9.0,51,0.00,,SKC,0.00,VWS V13.00,2013-02-18 05:20:00,
2013-02-17 23:25:00,37.4,20.5,30.25,SSE,161,2.0,9.0,50,0.00,,SKC,0.00,VWS V13.00,2013-02-18 05:25:00,
2013-02-17 23:30:00,37.3,20.9,30.25,South,180,6.0,9.0,51,0.00,,SKC,0.00,VWS V13.00,2013-02-18 05:30:00,
2013-02-17 23:35:00,37.5,20.6,30.25,South,178,4.0,6.0,50,0.00,,SKC,0.00,VWS V13.00,2013-02-18 05:35:00,
2013-02-17 23:40:00,37.7,20.8,30.25,South,173,5.0,8.0,50,0.00,,SKC,0.00,VWS V13.00,2013-02-18 05:40:00,
2013-02-17 23:45:00,37.8,20.8,30.25,South,184,5.0,8.0,50,0.00,,SKC,0.00,VWS V13.00,2013-02-18 05:45:00,
2013-02-17 23:50:00,37.8,20.4,30.25,South,172,2.0,8.0,49,0.00,,SKC,0.00,VWS V13.00,2013-02-18 05:50:00,
2013-02-17 23:55:00,37.7,20.8,30.25,South,189,2.0,8.0,50,0.00,,SKC,0.00,VWS V13.00,2013-02-18 05:55:00,